Change the Weather History Date:

Thursday, January 24, 2013

  Actual Average Record
Temperature  
Mean Temperature 56 °F -  
Max Temperature 61 °F 55 °F 64 °F (2007)
Min Temperature 51 °F 40 °F 32 °F (2006)
Degree Days  
Heating Degree Days 9    
Growing Degree Days 6 (Base 50)    
Moisture  
Dew Point 45 °F    
Average Humidity 65    
Maximum Humidity 88    
Minimum Humidity 49    
Precipitation  
Precipitation 0.28 in - - ()
Sea Level Pressure  
Sea Level Pressure 29.69 in    
Wind  
Wind Speed 9 mph ()    
Max Wind Speed 23 mph    
Max Gust Speed -    
Visibility 5.6 miles    
Events Rain    
Averages and records for this station are not official NWS values.
T = Trace of Precipitation, MM = Missing Value Source: Averaged Metar Reports

Daily Weather History Graph

Daily Weather History Graph

Search for Another Location

Airport or City:

Trip Planner

Search our weather history database for the weather conditions in past years. The results will help you decide how hot, cold, wet, or windy it might be!

Date:

Astronomy

Jan. 24, 2013 Rise Set
Actual Time 7:45 AM EET 5:49 PM EET
Civil Twilight 7:16 AM EET 6:17 PM EET
Nautical Twilight 6:45 AM EET 6:49 PM EET
Astronomical Twilight 6:13 AM EET 7:20 PM EET
Moon 3:35 PM EET (1/24) 5:28 AM EET (1/24)
Length of Visible Light 11h 00m
Length of Day
10h 04m
Waxing Gibbous, 93% of the Moon is Illuminated
Jan 24
Waxing Gibbous
Jan 27
Full
Feb 3
Last Quarter
Feb 10
New
Feb 17
First Quarter

Hourly Weather History & Observations

Time (EET) Temp. Dew Point Humidity Pressure Visibility Wind Dir Wind Speed Gust Speed Precip Events Conditions
1:50 AM 51.8 °F 42.8 °F 71% 29.89 in 6.2 mi ESE 6.9 mph - N/A   Mostly Cloudy
2:00 AM 52 °F 43 °F 64% 29.89 in 6 mi ESE 6.9 mph - -   Partly Cloudy
4:50 AM 57.2 °F 42.8 °F 59% 29.77 in 6.2 mi SSE 13.8 mph - N/A   Overcast
6:50 AM 59.0 °F 50.0 °F 72% 29.74 in 6.2 mi South 16.1 mph - N/A   Mostly Cloudy
7:20 AM 59.0 °F 51.8 °F 77% 29.74 in 6.2 mi SSE 15.0 mph - N/A   Mostly Cloudy
7:50 AM 60.8 °F 51.8 °F 72% 29.74 in 5.0 mi SSE 16.1 mph - N/A   Overcast
8:00 AM 60 °F 51 °F 64% 29.75 in 5 mi SSE 16.1 mph - -   Mist
8:20 AM 60.8 °F 50.0 °F 68% 29.74 in 5.0 mi SSE 17.3 mph - N/A   Overcast
8:50 AM 60.8 °F 50.0 °F 68% 29.71 in 5.0 mi SSE 15.0 mph - N/A   Mostly Cloudy
9:20 AM 60.8 °F 50.0 °F 68% 29.71 in 4.3 mi SSE 15.0 mph - N/A Rain Light Rain
9:50 AM 60.8 °F 50.0 °F 68% 29.68 in 5.0 mi South 23.0 mph - N/A   Mostly Cloudy
10:20 AM 60.8 °F 50.0 °F 68% 29.68 in 4.3 mi South 20.7 mph - N/A Rain Light Rain
10:50 AM 59.0 °F 51.8 °F 77% 29.68 in 3.7 mi South 17.3 mph - N/A Rain Light Rain
11:20 AM 51.8 °F 48.2 °F 88% 29.71 in 3.7 mi SW 11.5 mph - N/A Rain Light Rain
11:50 AM 57.2 °F 50.0 °F 77% 29.68 in 5.0 mi WSW 13.8 mph - N/A   Mostly Cloudy
12:20 PM 59.0 °F 44.6 °F 59% 29.68 in 5.6 mi SW 10.4 mph - N/A   Mostly Cloudy
12:50 PM 59.0 °F 44.6 °F 59% 29.68 in 5.6 mi WSW 9.2 mph - N/A   Mostly Cloudy
1:20 PM 59.0 °F 44.6 °F 59% 29.68 in 5.6 mi SW 10.4 mph - N/A   Mostly Cloudy
1:50 PM 59.0 °F 44.6 °F 59% 29.68 in 5.0 mi SW 9.2 mph - N/A   Overcast
2:00 PM 59 °F 45 °F 49% 29.69 in 5 mi SW 9.2 mph - -   Mist
2:20 PM 57.2 °F 42.8 °F 59% 29.68 in 5.0 mi SW 9.2 mph - N/A   Overcast
2:50 PM 55.4 °F 44.6 °F 67% 29.68 in 4.3 mi SW 6.9 mph - N/A Rain Light Rain
3:20 PM 57.2 °F 41.0 °F 55% 29.68 in 5.0 mi SW 4.6 mph - N/A   Mostly Cloudy
3:50 PM 59.0 °F 41.0 °F 51% 29.65 in 5.0 mi SW 5.8 mph - N/A   Mostly Cloudy
4:20 PM 59.0 °F 41.0 °F 51% 29.65 in 6.2 mi SW 10.4 mph - N/A   Mostly Cloudy
4:50 PM 57.2 °F 41.0 °F 55% 29.65 in 6.2 mi SW 8.1 mph - N/A   Mostly Cloudy
5:20 PM 57.2 °F 41.0 °F 55% 29.65 in 6.2 mi SW 8.1 mph - N/A   Mostly Cloudy
5:50 PM 55.4 °F 42.8 °F 63% 29.65 in 6.2 mi Calm Calm - N/A   Mostly Cloudy
6:20 PM 53.6 °F 42.8 °F 67% 29.65 in 6.2 mi Calm Calm - N/A   Mostly Cloudy
6:50 PM 53.6 °F 41.0 °F 62% 29.65 in 6.2 mi SW 8.1 mph - N/A   Mostly Cloudy
7:20 PM 53.6 °F 41.0 °F 62% 29.65 in 6.2 mi Calm Calm - N/A   Mostly Cloudy
7:50 PM 51.8 °F 41.0 °F 67% 29.65 in 6.2 mi Calm Calm - N/A   Mostly Cloudy
8:00 PM 52 °F 41 °F 56% 29.67 in 6 mi Calm Calm - -   Partly Cloudy
8:20 PM 51.8 °F 41.0 °F 67% 29.65 in 6.2 mi Calm Calm - N/A   Mostly Cloudy
8:50 PM 53.6 °F 42.8 °F 67% 29.65 in 6.2 mi SW 8.1 mph - N/A Rain Light Rain
9:20 PM 51.8 °F 44.6 °F 76% 29.65 in 6.2 mi Calm Calm - N/A   Mostly Cloudy
9:50 PM 51.8 °F 44.6 °F 76% 29.65 in 6.2 mi SSW 5.8 mph - N/A   Mostly Cloudy
10:20 PM 51.8 °F 44.6 °F 76% 29.65 in 6.2 mi Calm Calm - N/A   Mostly Cloudy
10:50 PM 53.6 °F 42.8 °F 67% 29.65 in 6.2 mi Calm Calm - N/A   Mostly Cloudy
11:20 PM 53.6 °F 42.8 °F 67% 29.65 in 6.2 mi SW 5.8 mph - N/A   Mostly Cloudy
11:50 PM 53.6 °F 42.8 °F 67% 29.65 in 6.2 mi SW 5.8 mph - N/A   Mostly Cloudy